Weather History for Eastover, SC

Change the Weather History Date:

Friday, March 29, 2013

  Actual Average Record
Temperature  
Mean Temperature 46 °F -  
Max Temperature 65 °F 68 °F 86 °F (2012)
Min Temperature 30 °F 48 °F 30 °F (2013)
Degree Days  
Heating Degree Days 18    
Moisture  
Dew Point 26 °F    
Average Humidity 47    
Maximum Humidity 85    
Minimum Humidity 19    
Precipitation  
Precipitation 0.00 in - - ()
Sea Level Pressure  
Sea Level Pressure 30.30 in    
Wind  
Wind Speed 4 mph (NNW)    
Max Wind Speed 12 mph    
Max Gust Speed -    
Visibility 10 miles    
Events      
Averages and records for this station are not official NWS values.
T = Trace of Precipitation, MM = Missing Value Source: NWS Daily Summary

Daily Weather History Graph

Daily Weather History Graph

Search for Another Location

Airport:

Trip Planner

Search our weather history database for the weather conditions in past years. The results will help you decide how hot, cold, wet, or windy it might be!

Date:

Astronomy

Mar. 29, 2013 Rise Set
Actual Time 7:14 AM EDT 7:41 PM EDT
Civil Twilight 6:49 AM EDT 8:06 PM EDT
Nautical Twilight 6:19 AM EDT 8:36 PM EDT
Astronomical Twilight 5:49 AM EDT 9:06 PM EDT
Moon 10:30 PM EDT (3/29) 8:30 AM EDT (3/29)
Length of Visible Light 13h 17m
Length of Day
12h 27m
Waning Gibbous, 93% of the Moon is Illuminated
Mar 29
Waning Gibbous
Apr 3
Last Quarter
Apr 10
New
Apr 18
First Quarter
Apr 25
Full

Hourly Weather History & Observations

Time (EDT) Temp. Windchill Dew Point Humidity Pressure Visibility Wind Dir Wind Speed Gust Speed Precip Events Conditions
12:58 AM 34.5 °F 31.6 °F 26.4 °F 72% 30.31 in 10.0 mi NNE 3.5 mph - N/A   Clear
1:58 AM 37.8 °F 34.2 °F 23.7 °F 57% 30.32 in 10.0 mi NNE 4.6 mph - N/A   Clear
2:58 AM 36.1 °F - 25.5 °F 65% 30.32 in 10.0 mi NNE 2.3 mph - N/A   Clear
3:58 AM 33.3 °F 30.2 °F 24.8 °F 71% 30.32 in 10.0 mi NNE 3.5 mph - N/A   Clear
4:58 AM 31.5 °F 28.1 °F 25.2 °F 78% 30.32 in 10.0 mi North 3.5 mph - N/A   Clear
5:58 AM 30.6 °F - 25.7 °F 82% 30.33 in 10.0 mi Calm Calm - N/A   Clear
6:58 AM 30.0 °F - 25.9 °F 85% 30.35 in 10.0 mi North 1.2 mph - N/A   Clear
7:58 AM 30.6 °F - 26.2 °F 84% 30.36 in 10.0 mi WNW 1.2 mph - N/A   Clear
8:58 AM 42.3 °F - 29.3 °F 60% 30.38 in 10.0 mi Calm Calm - N/A   Clear
9:58 AM 50.2 °F - 25.3 °F 38% 30.38 in 10.0 mi SE 9.2 mph - N/A   Clear
10:58 AM 53.8 °F - 24.4 °F 32% 30.38 in 10.0 mi ESE 4.6 mph - N/A   Clear
11:58 AM 57.7 °F - 24.6 °F 28% 30.36 in 10.0 mi Variable 2.3 mph - N/A   Clear
12:58 PM 59.2 °F - 23.0 °F 25% 30.34 in 10.0 mi Variable 3.5 mph - N/A   Clear
1:58 PM 61.9 °F - 23.0 °F 23% 30.30 in 10.0 mi WNW 8.1 mph - N/A   Clear
2:58 PM 63.0 °F - 20.8 °F 20% 30.26 in 10.0 mi SSW 6.9 mph - N/A   Clear
3:55 PM 63.7 °F - 19.9 °F 19% 30.24 in 10.0 mi WSW 10.4 mph - N/A   Partly Cloudy
3:58 PM 63.7 °F - 19.9 °F 19% 30.24 in 10.0 mi West 11.5 mph - N/A   Clear
4:55 PM 62.8 °F - 20.5 °F 20% 30.23 in 10.0 mi WNW 9.2 mph - N/A   Mostly Cloudy
5:55 PM 62.1 °F - 23.7 °F 23% 30.22 in 10.0 mi NW 5.8 mph - N/A   Overcast
6:58 PM 61.2 °F - 25.0 °F 25% 30.23 in 10.0 mi NW 4.6 mph - N/A   Mostly Cloudy
7:58 PM 57.0 °F - 27.7 °F 33% 30.25 in 10.0 mi NNW 2.3 mph - N/A   Mostly Cloudy
8:58 PM 54.9 °F - 32.0 °F 42% 30.24 in 10.0 mi Calm Calm - N/A   Overcast
9:58 PM 52.7 °F - 37.0 °F 55% 30.24 in 10.0 mi NE 2.3 mph - N/A   Overcast
10:58 PM 52.0 °F - 35.8 °F 54% 30.26 in 10.0 mi Calm Calm - N/A   Overcast
11:58 PM 51.4 °F - 36.5 °F 57% 30.26 in 10.0 mi SSE 3.5 mph - N/A   Clear